[[{"header":{"parameterUnit":"m.s-1","parameterCategory":1,"la1":30.2991,"la2":30.254,"lo1":-89.0895,"lo2":-89.0444,"dy":0.0017,"dx":0.0017,"nx":28,"ny":28,"refTime":"2026-02-09T09:00:00:Z","depth":0,"parameterNumber":2,"parameterNumberName":"U-component_of_WINDS"},"data":[0,0,0,0,0,0,0,0,0,0,0,0,0,0,0,0,0,0,0,0,0,0,0,0,0,0,0,0,0,0,0,0,0,0,0,0,0,0,0,0,0,0,0,0,0,0,0,0,0,0,0,0,0,0,0,0,0,0,-0.0406,-0.0406,0,-0.0422,-0.0422,-0.0423,-0.0454,-0.0454,-0.0455,-0.0456,-0.0471,-0.0471,-0.0471,0,0,0,0,0,0,0,0,0,0,0,0,0,-0.0401,-0.0401,-0.0406,-0.0406,-0.0406,-0.0422,-0.0422,-0.0423,-0.0454,-0.0454,-0.0455,-0.0456,-0.0471,-0.0471,-0.0471,0,0,0,0,0,0,0,0,0,0,0,0,0,-0.0409,-0.0401,-0.0406,-0.0424,-0.0425,-0.0422,-0.0422,-0.0423,-0.0453,-0.0454,-0.0455,-0.0456,-0.0471,-0.0471,-0.0471,-0.0451,0,0,-0.047,-0.047,0,0,0,0,0,0,0,0,-0.0408,-0.0409,-0.0421,-0.0422,-0.0424,-0.0437,-0.0427,-0.0432,-0.0453,-0.0443,-0.0456,-0.0457,-0.0459,-0.046,-0.0461,-0.0452,-0.0453,-0.047,-0.047,-0.047,-0.047,0,0,0,0,0,0,0,-0.0408,-0.0408,-0.0412,-0.0421,-0.0423,-0.0431,-0.0433,-0.0428,-0.0446,-0.0444,-0.0446,-0.0448,-0.046,-0.0461,-0.0461,-0.0453,-0.047,-0.047,-0.047,-0.047,-0.0429,-0.0428,0,0,0,0,0,0,-0.0405,-0.0408,-0.0412,-0.0413,-0.0419,-0.043,-0.0432,-0.0432,-0.0446,-0.0449,-0.0447,-0.0449,-0.0461,-0.0462,-0.0462,-0.044,-0.047,-0.047,-0.047,-0.043,-0.0429,-0.0428,0,0,0,0,0,0,-0.0404,-0.0405,-0.0411,-0.0411,-0.0412,-0.0429,-0.0428,-0.0432,-0.0433,-0.0448,-0.0451,-0.0444,-0.0462,-0.0462,-0.0454,-0.0441,-0.047,-0.0469,-0.0431,-0.043,-0.0429,-0.0396,0,0,0,0,0,0,-0.0404,-0.0404,-0.0397,-0.0411,-0.0412,-0.0403,-0.0428,-0.0431,-0.0432,-0.0435,-0.0447,-0.0449,-0.0462,-0.0454,-0.0454,-0.0441,-0.0469,-0.0432,-0.0431,-0.0429,-0.0398,-0.0393,-0.039,0,0,0,0,0,-0.0404,-0.0387,-0.0397,-0.0397,-0.0403,-0.0402,-0.0403,-0.0418,-0.0431,-0.0424,-0.0434,-0.0449,-0.0443,-0.0453,-0.0453,-0.044,-0.0433,-0.0431,-0.0429,-0.04,-0.0394,-0.039,0,0,0,0,0,0,-0.0371,-0.0389,-0.04,-0.0387,-0.0393,-0.0407,-0.0398,-0.0412,-0.0414,-0.0416,-0.0436,-0.0438,-0.0427,-0.0433,-0.0444,-0.0422,-0.0441,-0.0438,-0.0418,-0.0413,-0.0409,-0.0407,-0.0469,0,0,0,0,0,-0.0362,-0.036,-0.0375,-0.0362,-0.0365,-0.0381,-0.0381,-0.0393,-0.0399,-0.0402,-0.0411,-0.0417,-0.0416,-0.0415,-0.0415,-0.04,-0.0402,-0.0391,-0.0387,-0.0383,-0.0381,-0.0373,-0.0368,-0.0421,-0.0421,-0.0421,0,0,-0.0344,-0.0354,-0.0351,-0.0356,-0.0362,-0.0359,-0.0383,-0.0378,-0.0376,-0.0401,-0.0393,-0.0401,-0.0408,-0.0396,-0.0391,-0.0401,-0.0367,-0.038,-0.0377,-0.0377,-0.037,-0.0365,-0.0361,-0.042,-0.042,-0.042,0,0,-0.0309,-0.0316,-0.0306,-0.0312,-0.0321,-0.0332,-0.0329,-0.0342,-0.0348,-0.0341,-0.036,-0.0357,-0.0356,-0.0361,-0.0363,-0.0331,-0.0345,-0.033,-0.0308,-0.03,-0.0296,-0.0292,-0.0281,-0.0276,-0.0328,-0.0328,-0.0328,0,-0.0285,-0.0281,-0.0299,-0.0293,-0.0295,-0.0319,-0.0309,-0.0313,-0.0321,-0.0322,-0.0333,-0.0332,-0.0339,-0.0328,-0.0321,-0.0322,-0.0319,-0.0329,-0.0295,-0.0291,-0.0288,-0.0278,-0.0273,-0.0326,-0.0326,-0.0327,-0.0327,0,-0.0251,-0.0248,-0.0239,-0.0247,-0.0248,-0.024,-0.0257,-0.0256,-0.0268,-0.0278,-0.0271,-0.028,-0.0282,-0.0281,-0.0292,-0.0272,-0.0278,-0.0292,-0.031,-0.0281,-0.0271,-0.0267,-0.0324,-0.0324,-0.0325,-0.0325,0,0,-0.0195,-0.0214,-0.021,-0.0214,-0.0226,-0.0224,-0.0217,-0.0221,-0.0219,-0.0225,-0.0219,-0.0218,-0.0231,-0.0234,-0.0246,-0.0239,-0.0214,-0.0254,-0.0255,-0.0246,-0.0192,-0.0181,-0.0176,-0.0223,-0.0223,-0.0222,-0.0191,0,-0.0162,-0.0152,-0.0168,-0.0155,-0.0152,-0.0175,-0.0169,-0.0176,-0.0185,-0.0185,-0.0195,-0.0194,-0.0211,-0.0213,-0.0207,-0.0218,-0.0203,-0.022,-0.0219,-0.0218,-0.0215,-0.0171,-0.016,-0.013,-0.0188,-0.0187,-0.0186,0,-0.0122,-0.0126,-0.0112,-0.0125,-0.0125,-0.012,-0.0124,-0.0123,-0.0132,-0.0139,-0.0142,-0.0157,-0.0152,-0.0171,-0.0163,-0.0175,-0.0175,-0.0181,-0.018,-0.018,-0.02,-0.0169,-0.0121,-0.0116,-0.0181,-0.0181,-0.0182,0,-0.0082,-0.0084,-0.0076,-0.0079,-0.0094,-0.009,-0.0096,-0.0106,-0.0107,-0.0111,-0.0112,-0.0115,-0.0116,-0.0119,-0.0134,-0.0146,-0.0125,-0.0145,-0.0131,-0.0131,-0.0125,-0.0125,-0.0075,-0.0126,-0.0126,-0.0126,-0.0126,0,-0.0043,-0.0034,-0.0058,-0.0053,-0.0043,-0.0063,-0.0052,-0.0061,-0.0069,-0.0066,-0.0086,-0.0083,-0.0104,-0.0103,-0.0115,-0.0107,-0.0108,-0.0114,-0.0117,-0.0112,-0.0111,-0.0112,-0.0114,-0.0125,-0.0125,-0.0125,-0.0125,0,0.0003,-0.0013,-0.0005,-0.0021,-0.0025,-0.0017,-0.003,-0.0026,-0.0037,-0.0033,-0.0034,-0.0051,-0.0051,-0.0067,-0.007,-0.0078,-0.0066,-0.0073,-0.0063,-0.0065,-0.005,-0.0051,0.0002,0.0007,-0.0047,-0.0047,-0.0046,0,0.0029,0.0036,0.0021,0.0021,0.0016,0.0017,0.0015,-0.0004,-0.0005,-0.0014,-0.0009,-0.0011,-0.0013,-0.0012,-0.0025,-0.0028,-0.0035,-0.0017,-0.0036,-0.0031,-0.0035,-0.0035,-0.0034,-0.0012,-0.0012,-0.0011,-0.0011,0,0.0077,0.0069,0.0067,0.0063,0.0062,0.0057,0.0052,0.0053,0.0032,0.0033,0.0032,0.003,0.0026,0.0025,0.0019,0.0013,-0.0002,-0.0005,-0.0002,0.0004,0.001,0.0007,-0.0051,-0.0006,-0.0006,-0.0007,-0.0007,-0.0007,0.0114,0.0119,0.0109,0.0108,0.0101,0.0097,0.0099,0.0088,0.0087,0.0083,0.0071,0.0072,0.0063,0.0054,0.0049,0.005,0.0041,0.0045,0.0046,0.0048,0.0051,0.0009,0.0049,0.0049,0.0048,0.0048,0.0048,0,0.0161,0.0153,0.0152,0.0145,0.0144,0.0129,0.0122,0.0122,0.0123,0.0116,0.0114,0.0113,0.0111,0.0098,0.0094,0.0097,0.009,0.0097,0.0097,0.0095,0.0059,0.0057,0.0103,0.0103,0.0103,0.0103,0.0103,0.0103,0.0185,0.0192,0.0183,0.0186,0.0178,0.0179,0.0176,0.0172,0.0166,0.0165,0.0164,0.0155,0.0145,0.014,0.0138,0.0134,0.0134,0.0143,0.0137,0.0103,0.0098,0.0093,0.0091,0.0143,0.0143,0.0173,0.0173,0.0173]},{"header":{"parameterUnit":"m.s-1","parameterCategory":1,"la1":30.2991,"la2":30.254,"lo1":-89.0895,"lo2":-89.0444,"dy":0.0017,"dx":0.0017,"nx":28,"ny":28,"refTime":"2026-02-09T09:00:00:Z","depth":0,"parameterNumber":3,"parameterNumberName":"V-component_of_WINDS"},"data":[0,0,0,0,0,0,0,0,0,0,0,0,0,0,0,0,0,0,0,0,0,0,0,0,0,0,0,0,0,0,0,0,0,0,0,0,0,0,0,0,0,0,0,0,0,0,0,0,0,0,0,0,0,0,0,0,0,0,2.0374,2.0374,0,2.034,2.0339,2.0339,2.0347,2.0348,2.0348,2.0349,2.0307,2.0305,2.0304,0,0,0,0,0,0,0,0,0,0,0,0,0,2.0441,2.044,2.0374,2.0374,2.0373,2.034,2.0339,2.0339,2.0347,2.0348,2.0349,2.0349,2.0308,2.0306,2.0304,0,0,0,0,0,0,0,0,0,0,0,0,0,2.041,2.044,2.0374,2.0374,2.0373,2.034,2.0339,2.0339,2.0347,2.0348,2.0349,2.035,2.0308,2.0306,2.0303,2.0267,0,0,2.0295,2.0294,0,0,0,0,0,0,0,0,2.0412,2.0407,2.0374,2.0374,2.0373,2.0349,2.0348,2.0314,2.0346,2.0357,2.0349,2.035,2.032,2.0316,2.0307,2.0265,2.0263,2.0295,2.0293,2.0292,2.0292,0,0,0,0,0,0,0,2.0414,2.0409,2.036,2.0374,2.0373,2.0373,2.037,2.0341,2.0333,2.0356,2.0356,2.0352,2.032,2.031,2.0306,2.0262,2.0295,2.0293,2.0291,2.029,2.0188,2.0187,0,0,0,0,0,0,2.0417,2.0411,2.0361,2.0359,2.0395,2.0371,2.0367,2.0355,2.0333,2.0331,2.0352,2.0353,2.0314,2.0309,2.0305,2.0261,2.0292,2.029,2.0288,2.0189,2.0188,2.0187,0,0,0,0,0,0,2.0419,2.0413,2.0363,2.0385,2.0379,2.0369,2.0355,2.0354,2.0345,2.033,2.0328,2.0344,2.0314,2.0309,2.0277,2.026,2.0289,2.0286,2.0191,2.0189,2.0187,2.0173,0,0,0,0,0,0,2.0421,2.0413,2.0401,2.0385,2.0378,2.0337,2.0354,2.0353,2.0341,2.0342,2.0322,2.0319,2.0315,2.0281,2.0274,2.0257,2.0284,2.0192,2.019,2.0188,2.0175,2.0171,2.0168,0,0,0,0,0,2.0423,2.0396,2.04,2.0394,2.0362,2.0336,2.0332,2.0329,2.034,2.0326,2.0317,2.032,2.0263,2.0277,2.027,2.0252,2.0193,2.0191,2.0188,2.0177,2.0172,2.0168,0,0,0,0,0,0,2.0408,2.0394,2.0398,2.0366,2.0353,2.0338,2.032,2.0324,2.0305,2.0307,2.0302,2.0297,2.0265,2.0255,2.0271,2.0215,2.0229,2.0225,2.0223,2.0219,2.0215,2.0218,2.0282,0,0,0,0,0,2.0401,2.0383,2.0372,2.0344,2.0338,2.033,2.0319,2.0318,2.0303,2.0296,2.0284,2.0268,2.0246,2.0232,2.0211,2.0174,2.0169,2.0157,2.0154,2.0151,2.0147,2.0127,2.0122,2.0178,2.0178,2.0178,0,0,2.0387,2.0377,2.0366,2.0341,2.0331,2.0311,2.0325,2.0303,2.0288,2.0292,2.0262,2.0253,2.0234,2.0199,2.0183,2.019,2.0131,2.0148,2.0146,2.0143,2.0124,2.0119,2.0114,2.0177,2.0177,2.0177,0,0,2.035,2.0341,2.0318,2.0308,2.0292,2.0288,2.0282,2.0267,2.0261,2.0232,2.0235,2.0215,2.0178,2.0165,2.0153,2.0112,2.0114,2.0105,2.0086,2.0067,2.0062,2.0058,2.0044,2.0039,2.0101,2.0101,2.0101,0,2.0333,2.0305,2.0305,2.0283,2.0272,2.0278,2.0254,2.0243,2.022,2.0211,2.022,2.0174,2.0161,2.0124,2.0114,2.0104,2.0097,2.0107,2.0063,2.0059,2.0055,2.0042,2.0036,2.01,2.0101,2.0101,2.0101,0,2.0285,2.0266,2.0249,2.023,2.0217,2.0193,2.0188,2.0174,2.0175,2.0169,2.0138,2.0123,2.01,2.0091,2.009,2.0054,2.0058,2.0065,2.0079,2.0049,2.0036,2.0031,2.0099,2.0099,2.01,2.01,0,0,2.0238,2.0221,2.0214,2.0206,2.019,2.0173,2.015,2.013,2.0118,2.0102,2.0082,2.0051,2.0057,2.0044,2.0041,2.0024,1.9993,2.0033,2.0032,2.0026,1.9952,1.9948,1.9942,1.9995,1.9994,1.9993,1.9954,0,2.02,2.0162,2.0162,2.0126,2.0107,2.0112,2.0092,2.0079,2.0072,2.0054,2.0046,2.0025,2.0035,2.0027,2.001,2.0,1.9978,2.0003,1.9975,1.9974,1.998,1.9935,1.993,1.9894,1.9949,1.9948,1.9947,0,2.0151,2.0137,2.01,2.0087,2.0079,2.0061,2.0043,2.0026,2.001,2.0007,1.9993,1.9993,1.9968,1.9983,1.9947,1.9964,1.9952,1.9946,1.9944,1.9941,1.9959,1.9931,1.9882,1.9877,1.9939,1.994,1.994,0,2.0121,2.0092,2.0066,2.0059,2.0043,2.003,2.0023,2.0009,1.9997,1.998,1.9972,1.9951,1.9939,1.9922,1.9917,1.9928,1.9881,1.9896,1.9877,1.9877,1.9866,1.9867,1.9815,1.9858,1.9858,1.9859,1.9859,0,2.0079,2.0056,2.0053,2.0037,2.0011,2.001,1.9984,1.9977,1.9964,1.9946,1.9948,1.993,1.9924,1.9904,1.9899,1.9871,1.9865,1.9861,1.986,1.9861,1.9861,1.9853,1.9855,1.9857,1.9857,1.9858,1.9858,0,2.0041,2.0038,2.001,1.9998,1.9995,1.9976,1.9965,1.9949,1.9944,1.9921,1.9915,1.9905,1.9883,1.9876,1.9847,1.9844,1.9811,1.9812,1.9817,1.9817,1.9798,1.98,1.9739,1.9731,1.9779,1.9779,1.9779,0,2.0015,1.9998,1.9985,1.9974,1.9967,1.9949,1.9937,1.9935,1.9922,1.9904,1.989,1.9868,1.9851,1.9814,1.9804,1.9782,1.9783,1.9763,1.9779,1.9781,1.9783,1.9784,1.9782,1.976,1.9759,1.9759,1.9759,0,1.9969,1.9968,1.9953,1.9937,1.9923,1.991,1.9897,1.9887,1.9883,1.9868,1.9847,1.9833,1.9806,1.9784,1.9763,1.9753,1.9754,1.9754,1.9748,1.9749,1.9753,1.9751,1.9809,1.9755,1.9755,1.9756,1.9756,1.9756,1.9936,1.9921,1.991,1.9893,1.9883,1.9871,1.9856,1.985,1.9833,1.9812,1.9811,1.9787,1.9772,1.9744,1.9733,1.9713,1.9719,1.9711,1.9709,1.9707,1.9706,1.9756,1.9709,1.9709,1.9709,1.9709,1.971,0,1.989,1.9884,1.9868,1.9851,1.9837,1.9842,1.9828,1.9815,1.9796,1.9782,1.9766,1.9741,1.972,1.9709,1.9687,1.9674,1.9674,1.9668,1.9669,1.9667,1.9702,1.9709,1.9669,1.9669,1.9669,1.9669,1.9669,1.9669,1.9865,1.9841,1.9839,1.981,1.9803,1.9782,1.9774,1.9762,1.9752,1.9725,1.9708,1.9702,1.9689,1.9667,1.9647,1.9644,1.9636,1.963,1.9627,1.966,1.9664,1.9668,1.9675,1.9628,1.9628,1.9594,1.9594,1.9594]}]]